[[{"header":{"parameterUnit":"m.s-1","parameterCategory":1,"la1":30.2991,"la2":30.254,"lo1":-89.0895,"lo2":-89.0444,"dy":0.0017,"dx":0.0017,"nx":28,"ny":28,"refTime":"2025-07-08T09:00:00:Z","depth":0,"parameterNumber":2,"parameterNumberName":"U-component_of_WINDS"},"data":[0,0,0,0,0,0,0,0,0,0,0,0,0,0,0,0,0,0,0,0,0,0,0,0,0,0,0,0,0,0,0,0,0,0,0,0,0,0,0,0,0,0,0,0,0,0,0,0,0,0,0,0,0,0,0,0,0,0,3.0025,3.0026,0,3.0095,3.0095,3.0096,3.0091,3.009,3.0089,3.0088,3.0161,3.0164,3.0167,0,0,0,0,0,0,0,0,0,0,0,0,0,2.989,2.9892,3.0025,3.0026,3.0026,3.0094,3.0095,3.0096,3.0091,3.009,3.0089,3.0087,3.016,3.0164,3.0167,0,0,0,0,0,0,0,0,0,0,0,0,0,2.9953,2.9893,3.0025,3.0032,3.0033,3.0094,3.0095,3.0097,3.0091,3.009,3.0088,3.0087,3.0159,3.0163,3.0168,3.0226,0,0,3.0181,3.0183,0,0,0,0,0,0,0,0,2.9949,2.9958,3.003,3.0032,3.0033,3.0082,3.0075,3.014,3.0092,3.0069,3.0088,3.0086,3.0136,3.0143,3.0159,3.023,3.0233,3.0182,3.0184,3.0186,3.0187,0,0,0,0,0,0,0,2.9945,2.9955,3.0052,3.0031,3.0033,3.0033,3.004,3.0087,3.0111,3.0071,3.0071,3.0079,3.0137,3.0155,3.0161,3.0234,3.0181,3.0185,3.0188,3.019,3.0359,3.0361,0,0,0,0,0,0,2.9939,2.9951,3.005,3.0054,2.9987,3.0037,3.0045,3.0068,3.011,3.0115,3.0081,3.0079,3.0148,3.0156,3.0163,3.0236,3.0186,3.019,3.0193,3.0357,3.0359,3.0361,0,0,0,0,0,0,2.9936,2.9947,3.0047,3.0003,3.0016,3.0041,3.0067,3.007,3.0088,3.0117,3.0122,3.0094,3.0147,3.0157,3.0211,3.0239,3.0192,3.0196,3.0355,3.0358,3.036,3.0382,0,0,0,0,0,0,2.9932,2.9946,2.9968,3.0003,3.0018,3.0093,3.0069,3.0073,3.0096,3.0094,3.0132,3.0136,3.0147,3.0205,3.0216,3.0244,3.02,3.0353,3.0356,3.0359,3.0379,3.0385,3.039,0,0,0,0,0,2.9927,2.9971,2.9969,2.9981,3.0045,3.0094,3.0103,3.0114,3.0098,3.0121,3.014,3.0135,3.0234,3.021,3.0222,3.0253,3.0351,3.0355,3.0359,3.0376,3.0384,3.039,0,0,0,0,0,0,2.9938,2.9976,2.9974,3.0031,3.006,3.0093,3.0122,3.0121,3.0155,3.0152,3.0165,3.0173,3.0228,3.0246,3.0219,3.0313,3.0291,3.0297,3.0299,3.0307,3.0312,3.0307,3.0203,0,0,0,0,0,2.9947,2.9983,3.0015,3.0062,3.0076,3.0097,3.0119,3.0125,3.0155,3.0167,3.019,3.0221,3.0259,3.0284,3.032,3.0381,3.039,3.0408,3.0414,3.0419,3.0425,3.046,3.0469,3.0375,3.0375,3.0375,0,0,2.9966,2.9991,3.0013,3.0065,3.0088,3.0126,3.0107,3.0148,3.0177,3.0174,3.0226,3.0244,3.0279,3.0338,3.0364,3.0354,3.0453,3.0424,3.0428,3.0431,3.0466,3.0474,3.0482,3.0378,3.0377,3.0377,0,0,3.0021,3.0043,3.0085,3.0109,3.0144,3.0158,3.0169,3.0203,3.0215,3.0268,3.0267,3.0303,3.0367,3.0393,3.0415,3.0481,3.0479,3.0493,3.0523,3.0558,3.0565,3.0572,3.0597,3.0606,3.0499,3.0499,3.0499,0,3.004,3.0097,3.0107,3.0149,3.0172,3.0172,3.0216,3.0239,3.0284,3.0301,3.0289,3.0372,3.0395,3.046,3.0477,3.0494,3.0507,3.0489,3.0563,3.057,3.0577,3.0601,3.061,3.05,3.05,3.05,3.05,0,3.012,3.016,3.019,3.0234,3.0261,3.0304,3.0322,3.0348,3.0352,3.0368,3.0423,3.0451,3.0495,3.051,3.0515,3.0577,3.057,3.056,3.0538,3.0587,3.061,3.0619,3.0503,3.0502,3.0502,3.0501,0,0,3.0182,3.0233,3.0244,3.0265,3.0305,3.0336,3.038,3.0422,3.0445,3.0477,3.0515,3.0571,3.0563,3.0588,3.0595,3.0626,3.0679,3.0613,3.0614,3.0625,3.0751,3.0759,3.0769,3.0677,3.0679,3.0681,3.0749,0,3.0242,3.0318,3.033,3.0398,3.0435,3.0437,3.0475,3.0504,3.052,3.0556,3.0574,3.0614,3.06,3.0615,3.0645,3.0666,3.0704,3.0661,3.0714,3.0716,3.0706,3.0781,3.0788,3.0851,3.0758,3.0759,3.076,0,3.0321,3.0355,3.0427,3.0464,3.048,3.0514,3.0555,3.0588,3.0622,3.0632,3.0661,3.0665,3.0712,3.0688,3.0754,3.0724,3.0747,3.076,3.0763,3.0769,3.0741,3.0789,3.0871,3.0881,3.0774,3.0773,3.0772,0,3.0361,3.0425,3.0477,3.0495,3.0538,3.0563,3.0582,3.0615,3.064,3.0676,3.0693,3.0734,3.0757,3.0789,3.0805,3.0786,3.0871,3.0847,3.0881,3.0881,3.0899,3.0898,3.0986,3.0913,3.0912,3.0912,3.0912,0,3.0426,3.047,3.0496,3.0527,3.0578,3.0592,3.0641,3.066,3.069,3.0726,3.073,3.0764,3.0783,3.0821,3.0834,3.0887,3.0897,3.0908,3.0911,3.0908,3.0907,3.0923,3.0919,3.0915,3.0914,3.0914,3.0913,0,3.0479,3.0497,3.0554,3.0591,3.0602,3.0637,3.067,3.0702,3.0718,3.0765,3.0777,3.0803,3.0848,3.0867,3.0922,3.0931,3.0993,3.0992,3.0981,3.0983,3.1016,3.1013,3.1118,3.1134,3.1049,3.105,3.1051,0,3.0519,3.0554,3.0595,3.062,3.064,3.0679,3.0706,3.0721,3.0749,3.0791,3.0819,3.0863,3.09,3.0972,3.0997,3.104,3.1041,3.1075,3.1047,3.1044,3.1043,3.1041,3.1045,3.108,3.1081,3.1082,3.1082,0,3.059,3.0598,3.0635,3.0677,3.0708,3.0741,3.0774,3.0794,3.0815,3.0846,3.0892,3.092,3.0977,3.1023,3.1067,3.1089,3.109,3.1091,3.1101,3.1099,3.1091,3.1097,3.0996,3.1088,3.1088,3.1087,3.1087,3.1087,3.0639,3.067,3.0705,3.0747,3.0773,3.0804,3.0836,3.0857,3.0896,3.0943,3.095,3.1,3.1035,3.1095,3.1119,3.1159,3.115,3.1165,3.1169,3.1172,3.1175,3.1085,3.1167,3.1167,3.1166,3.1166,3.1166,0,3.0711,3.0734,3.0772,3.0818,3.0852,3.0849,3.0886,3.0914,3.0958,3.0991,3.1027,3.1081,3.1125,3.1154,3.1199,3.1226,3.1228,3.1237,3.1236,3.1241,3.1179,3.1166,3.1235,3.1235,3.1235,3.1235,3.1235,3.1235,3.0752,3.0805,3.0818,3.0885,3.0907,3.0956,3.0977,3.1006,3.1033,3.1093,3.1129,3.1148,3.118,3.1228,3.1269,3.1277,3.1293,3.1304,3.1311,3.1253,3.1245,3.1238,3.1226,3.1307,3.1307,3.137,3.137,3.1371]},{"header":{"parameterUnit":"m.s-1","parameterCategory":1,"la1":30.2991,"la2":30.254,"lo1":-89.0895,"lo2":-89.0444,"dy":0.0017,"dx":0.0017,"nx":28,"ny":28,"refTime":"2025-07-08T09:00:00:Z","depth":0,"parameterNumber":3,"parameterNumberName":"V-component_of_WINDS"},"data":[0,0,0,0,0,0,0,0,0,0,0,0,0,0,0,0,0,0,0,0,0,0,0,0,0,0,0,0,0,0,0,0,0,0,0,0,0,0,0,0,0,0,0,0,0,0,0,0,0,0,0,0,0,0,0,0,0,0,-0.1376,-0.1376,0,-0.1388,-0.1388,-0.1388,-0.1397,-0.1397,-0.1397,-0.1397,-0.1408,-0.1408,-0.1408,0,0,0,0,0,0,0,0,0,0,0,0,0,-0.1361,-0.1362,-0.1376,-0.1376,-0.1377,-0.1388,-0.1388,-0.1388,-0.1397,-0.1397,-0.1397,-0.1397,-0.1408,-0.1408,-0.1408,0,0,0,0,0,0,0,0,0,0,0,0,0,-0.137,-0.1362,-0.1376,-0.1382,-0.1383,-0.1388,-0.1388,-0.1388,-0.1397,-0.1397,-0.1397,-0.1397,-0.1408,-0.1408,-0.1408,-0.1407,0,0,-0.1409,-0.1409,0,0,0,0,0,0,0,0,-0.1369,-0.137,-0.1381,-0.1382,-0.1383,-0.1391,-0.1387,-0.1395,-0.1397,-0.1392,-0.1397,-0.1397,-0.1402,-0.1403,-0.1405,-0.1408,-0.1408,-0.1409,-0.1409,-0.1409,-0.1409,0,0,0,0,0,0,0,-0.1369,-0.137,-0.1381,-0.1381,-0.1382,-0.1384,-0.1386,-0.1388,-0.1396,-0.1392,-0.1393,-0.1394,-0.1402,-0.1404,-0.1405,-0.1409,-0.1409,-0.1409,-0.141,-0.141,-0.1413,-0.1413,0,0,0,0,0,0,-0.1367,-0.1369,-0.138,-0.1381,-0.1376,-0.1385,-0.1386,-0.1388,-0.1396,-0.1397,-0.1394,-0.1394,-0.1404,-0.1405,-0.1405,-0.1406,-0.1409,-0.141,-0.141,-0.1413,-0.1413,-0.1413,0,0,0,0,0,0,-0.1367,-0.1368,-0.138,-0.1376,-0.1377,-0.1385,-0.1387,-0.1388,-0.139,-0.1397,-0.1399,-0.1394,-0.1404,-0.1405,-0.1407,-0.1406,-0.141,-0.141,-0.1413,-0.1413,-0.1413,-0.1406,0,0,0,0,0,0,-0.1367,-0.1368,-0.1368,-0.1375,-0.1377,-0.1382,-0.1387,-0.1389,-0.1391,-0.1392,-0.1398,-0.1399,-0.1404,-0.1407,-0.1407,-0.1407,-0.141,-0.1413,-0.1413,-0.1413,-0.1406,-0.1405,-0.1405,0,0,0,0,0,-0.1366,-0.1365,-0.1368,-0.1369,-0.1377,-0.1382,-0.1383,-0.1388,-0.1391,-0.1391,-0.1395,-0.1399,-0.1406,-0.1407,-0.1408,-0.1407,-0.1413,-0.1413,-0.1413,-0.1406,-0.1406,-0.1405,0,0,0,0,0,0,-0.1356,-0.1366,-0.1369,-0.1371,-0.1375,-0.1383,-0.1383,-0.1387,-0.1391,-0.1391,-0.1398,-0.1399,-0.1401,-0.1404,-0.1405,-0.1407,-0.141,-0.141,-0.1405,-0.1404,-0.1404,-0.1403,-0.1411,0,0,0,0,0,-0.1355,-0.1357,-0.1366,-0.1366,-0.1368,-0.1375,-0.1377,-0.1382,-0.1387,-0.1388,-0.1393,-0.1397,-0.1401,-0.1403,-0.1406,-0.1407,-0.1409,-0.1407,-0.1406,-0.1406,-0.1405,-0.1407,-0.1406,-0.1412,-0.1412,-0.1412,0,0,-0.135,-0.1356,-0.1357,-0.1364,-0.1368,-0.1371,-0.1377,-0.1379,-0.1382,-0.1389,-0.1391,-0.1395,-0.14,-0.1402,-0.1403,-0.1405,-0.1404,-0.1405,-0.1405,-0.1405,-0.1406,-0.1406,-0.1405,-0.1412,-0.1412,-0.1412,0,0,-0.1345,-0.1349,-0.135,-0.1355,-0.1361,-0.1366,-0.1366,-0.1374,-0.1377,-0.138,-0.1385,-0.1388,-0.1393,-0.1397,-0.14,-0.1397,-0.14,-0.1398,-0.1394,-0.1395,-0.1395,-0.1394,-0.1394,-0.1393,-0.1397,-0.1397,-0.1397,0,-0.1338,-0.1343,-0.135,-0.1353,-0.1356,-0.1363,-0.1365,-0.1368,-0.1375,-0.1377,-0.1379,-0.1387,-0.1391,-0.1394,-0.1394,-0.1395,-0.1396,-0.1397,-0.1394,-0.1394,-0.1394,-0.1393,-0.1393,-0.1397,-0.1397,-0.1397,-0.1397,0,-0.1336,-0.1339,-0.1339,-0.1347,-0.135,-0.1352,-0.1359,-0.1362,-0.1366,-0.1371,-0.1374,-0.1379,-0.1384,-0.1385,-0.1389,-0.1389,-0.139,-0.1393,-0.1396,-0.1393,-0.1392,-0.1392,-0.1397,-0.1397,-0.1397,-0.1397,0,0,-0.1323,-0.1336,-0.1335,-0.1339,-0.1348,-0.135,-0.1353,-0.1358,-0.136,-0.1365,-0.1368,-0.1373,-0.1376,-0.1379,-0.1383,-0.1384,-0.1382,-0.1387,-0.1388,-0.1386,-0.1383,-0.1381,-0.138,-0.1385,-0.1385,-0.1385,-0.1383,0,-0.1319,-0.1324,-0.1331,-0.1334,-0.1337,-0.1345,-0.1347,-0.1353,-0.1357,-0.1361,-0.1366,-0.137,-0.1373,-0.1375,-0.1377,-0.1382,-0.1382,-0.1382,-0.1387,-0.1387,-0.1385,-0.138,-0.1377,-0.1375,-0.1383,-0.1383,-0.1383,0,-0.1314,-0.1319,-0.1323,-0.1332,-0.1333,-0.1335,-0.1341,-0.1345,-0.1351,-0.1355,-0.1359,-0.1364,-0.1367,-0.137,-0.1375,-0.1375,-0.1378,-0.1381,-0.1381,-0.1381,-0.1384,-0.138,-0.1374,-0.1374,-0.1382,-0.1382,-0.1382,0,-0.1304,-0.1313,-0.1316,-0.1319,-0.1329,-0.1331,-0.1335,-0.1342,-0.1345,-0.135,-0.1353,-0.1358,-0.1361,-0.1365,-0.1371,-0.1373,-0.1376,-0.1379,-0.1378,-0.1378,-0.1378,-0.1378,-0.1373,-0.138,-0.138,-0.138,-0.138,0,-0.1298,-0.13,-0.1312,-0.1314,-0.1317,-0.1325,-0.1327,-0.1332,-0.1338,-0.1341,-0.1348,-0.1351,-0.136,-0.1363,-0.1369,-0.1372,-0.1373,-0.1376,-0.1377,-0.1375,-0.1375,-0.1377,-0.1377,-0.138,-0.138,-0.138,-0.138,0,-0.1288,-0.1296,-0.13,-0.131,-0.1313,-0.1315,-0.1323,-0.1325,-0.1331,-0.1335,-0.1337,-0.1345,-0.135,-0.1357,-0.1364,-0.1368,-0.1371,-0.1373,-0.1368,-0.1369,-0.1368,-0.1368,-0.1364,-0.1364,-0.1371,-0.1371,-0.1371,0,-0.1284,-0.1286,-0.1296,-0.1299,-0.1304,-0.1308,-0.1312,-0.132,-0.1324,-0.1332,-0.1333,-0.1339,-0.1344,-0.1352,-0.1359,-0.1364,-0.1367,-0.1365,-0.1367,-0.1366,-0.1367,-0.1367,-0.1367,-0.1364,-0.1364,-0.1363,-0.1363,0,-0.1275,-0.1279,-0.1285,-0.1291,-0.1296,-0.1301,-0.1307,-0.1309,-0.1319,-0.1323,-0.1328,-0.1332,-0.134,-0.1346,-0.1353,-0.1357,-0.1362,-0.1363,-0.1363,-0.1361,-0.1358,-0.136,-0.1367,-0.1363,-0.1363,-0.1363,-0.1363,-0.1363,-0.1268,-0.127,-0.1278,-0.1284,-0.129,-0.1296,-0.1299,-0.1305,-0.131,-0.1318,-0.1322,-0.1328,-0.1335,-0.1345,-0.1349,-0.1353,-0.1355,-0.1356,-0.1356,-0.1355,-0.1355,-0.1358,-0.1355,-0.1355,-0.1355,-0.1355,-0.1355,0,-0.126,-0.1266,-0.1271,-0.128,-0.1285,-0.129,-0.1297,-0.13,-0.1305,-0.1312,-0.1317,-0.1324,-0.133,-0.1338,-0.1344,-0.1346,-0.1349,-0.1348,-0.1348,-0.1349,-0.1353,-0.1352,-0.1346,-0.1346,-0.1346,-0.1346,-0.1346,-0.1346,-0.1256,-0.126,-0.1266,-0.1273,-0.1279,-0.1285,-0.1289,-0.1294,-0.13,-0.1308,-0.1313,-0.1318,-0.1325,-0.1333,-0.1338,-0.1341,-0.1343,-0.1341,-0.1344,-0.1347,-0.1348,-0.1349,-0.1348,-0.1341,-0.1341,-0.1339,-0.1339,-0.1339]}]]